Regional Weather Roundup
Issued by NWS

Home | Current Version | Previous Version | Graphics & Text | Print | Product List | Glossary On
Versions: 1 2 3 4 5 6 7 8 9 10 11 12 13 14 15 16 17 18 19 20 21 22 23 24 25 26 27 28 29 30 31 32 33 34 35 36 37 38 39 40 41 42 43 44 45 46 47 48 49 50
000
ASUS43 KFSD 141610
RWRSD

WEATHER ROUNDUP FOR SOUTH DAKOTA
NATIONAL WEATHER SERVICE SIOUX FALLS SD
1000 AM CST SUN FEB 14 2016

NOTE: "FAIR" INDICATES FEW OR NO CLOUDS BELOW 12,000 FEET WITH NO
SIGNIFICANT WEATHER AND/OR OBSTRUCTIONS TO VISIBILITY.


SDZ001>005-009-010-012>017-141700-
NORTHWEST AND NORTH CENTRAL SOUTH DAKOTA

CITY           SKY/WX    TMP DP  RH WIND       PRES   REMARKS
BUFFALO          N/A     37  27  67 W14       29.70F
FAITH            N/A     33  24  69 W14       29.76F WCI  23
MOBRIDGE       CLOUDY    28  25  88 CALM      29.73F
$$

SDZ012>016-024>037-041>051-057-063-072>074-141700-
SOUTHWEST AND SOUTH CENTRAL SOUTH DAKOTA

CITY           SKY/WX    TMP DP  RH WIND       PRES   REMARKS
RAPID CTY ARPT CLOUDY    36  27  69 W3        29.81S
PIERRE         CLOUDY    35  31  85 W9        29.78F WCI  28
CUSTER         CLOUDY    30  18  60 W12       29.79S WCI  20
ELLSWORTH AFB  CLOUDY    35  28  76 SW6       29.80S WCI  30
PHILIP         CLOUDY    34  29  82 SW7       29.80F WCI  28
PINE RIDGE     CLOUDY    33  26  75 SW7       29.85F WCI  27
SPEARFISH      FAIR      36  23  60 W10       29.81S
WINNER         FAIR      39  31  72 NW13      29.81F
$$

SDZ004>011-016>023-039-040-141700-
NORTHEAST SOUTH DAKOTA

CITY           SKY/WX    TMP DP  RH WIND       PRES   REMARKS
ABERDEEN       CLOUDY    18  13  80 S15       29.81F HAZE    WCI   4
WATERTOWN      CLOUDY    14   9  80 S12       29.81R WCI   0
BROOKINGS      LGT SNOW  15  10  80 S17       29.82F WCI  -1
SISSETON         N/A     14  10  84 S16       29.84F WCI  -2
$$

SDZ017-020-022-023-036>040-048>070-141700-
SOUTHEAST SOUTH DAKOTA

CITY           SKY/WX    TMP DP  RH WIND       PRES   REMARKS
SIOUX FALLS    CLOUDY    17  12  80 S12       29.86S WCI   4
HURON          CLOUDY    16  13  88 S10       29.83F WCI   4
CHAMBERLAIN    CLOUDY    32  30  94 NW6       29.79F WCI  26
MITCHELL       CLOUDY    18  14  84 SE8       29.85F WCI   8
YANKTON        CLOUDY    19  12  73 E3        29.86S
$$

ABBREVIATIONS USED IN REMARKS
   TC - TEMPERATURE IN CELSIUS
  WCI - WIND CHILL INDEX
   HX - HEAT INDEX
  VSB - VISIBILITY




USA.gov is the U.S. government's official web portal to all federal, state and local government web resources and services.